TimeCDT,TemperatureF,Dew PointF,Humidity,Sea Level PressureIn,VisibilityMPH,Wind Direction,Wind SpeedMPH,Gust SpeedMPH,PrecipitationIn,Events,Conditions,WindDirDegrees,DateUTC
12:52 AM,39.0,34.0,82,30.02,10.0,Calm,Calm,-,N/A,,Clear,0,2012-11-01 05:52:00
1:52 AM,39.0,34.0,82,30.02,10.0,Calm,Calm,-,N/A,,Clear,0,2012-11-01 06:52:00
2:52 AM,37.0,33.1,86,30.01,7.0,Calm,Calm,-,N/A,,Scattered Clouds,0,2012-11-01 07:52:00
3:52 AM,39.9,34.0,79,30.00,10.0,Calm,Calm,-,N/A,,Clear,0,2012-11-01 08:52:00
4:52 AM,37.9,34.0,86,29.99,10.0,Calm,Calm,-,N/A,,Clear,0,2012-11-01 09:52:00
5:52 AM,37.9,33.1,83,30.00,9.0,Calm,Calm,-,N/A,,Clear,0,2012-11-01 10:52:00
6:52 AM,37.0,34.0,89,30.01,10.0,Calm,Calm,-,N/A,,Clear,0,2012-11-01 11:52:00
7:52 AM,37.0,34.0,89,30.02,8.0,WSW,3.5,-,N/A,,Clear,240,2012-11-01 12:52:00
8:52 AM,43.0,37.0,80,30.02,9.0,SW,3.5,-,N/A,,Clear,230,2012-11-01 13:52:00
9:52 AM,51.1,39.0,63,30.02,10.0,SW,6.9,-,N/A,,Clear,220,2012-11-01 14:52:00
10:52 AM,61.0,39.9,46,30.00,10.0,WSW,11.5,-,N/A,,Clear,250,2012-11-01 15:52:00
11:52 AM,66.9,39.9,37,29.99,10.0,WSW,10.4,-,N/A,,Clear,250,2012-11-01 16:52:00
12:52 PM,72.0,41.0,33,29.97,10.0,Variable,6.9,-,N/A,,Clear,0,2012-11-01 17:52:00
1:52 PM,75.9,42.1,30,29.94,10.0,NW,8.1,-,N/A,,Clear,310,2012-11-01 18:52:00
2:52 PM,77.0,41.0,28,29.93,10.0,Variable,6.9,-,N/A,,Clear,0,2012-11-01 19:52:00
3:52 PM,75.0,41.0,29,29.92,10.0,Variable,5.8,-,N/A,,Clear,0,2012-11-01 20:52:00
4:52 PM,72.0,42.1,34,29.93,10.0,NNE,8.1,-,N/A,,Clear,30,2012-11-01 21:52:00
5:52 PM,66.0,43.0,43,29.93,10.0,NNE,3.5,-,N/A,,Clear,30,2012-11-01 22:52:00
6:52 PM,61.0,42.1,50,29.94,10.0,North,3.5,-,N/A,,Clear,10,2012-11-01 23:52:00
7:52 PM,59.0,42.1,53,29.95,10.0,NNE,3.5,-,N/A,,Clear,20,2012-11-02 00:52:00
8:52 PM,57.9,41.0,53,29.95,10.0,Calm,Calm,-,N/A,,Clear,0,2012-11-02 01:52:00
9:52 PM,52.0,41.0,66,29.94,10.0,ENE,4.6,-,N/A,,Clear,60,2012-11-02 02:52:00
10:52 PM,54.0,39.9,59,29.93,10.0,Calm,Calm,-,N/A,,Clear,0,2012-11-02 03:52:00
11:52 PM,53.1,39.9,61,29.94,10.0,Calm,Calm,-,N/A,,Clear,0,2012-11-02 04:52:00